Weather History for KW43 - December, 2013

Change the Weather History Date:

Sunday, December 1, 2013

  Actual Average (KRAP) Record (KRAP)
Temperature  
Mean Temperature 40 °F 28 °F  
Max Temperature 48 °F 40 °F 71 °F (1973)
Min Temperature 33 °F 16 °F -14 °F (1985)
Degree Days  
Heating Degree Days 24 37  
Month to date heating degree days 37  
Since 1 July heating degree days 1712  
Cooling Degree Days 0 0  
Month to date cooling degree days 0  
Year to date cooling degree days 636  
Moisture  
Dew Point 28 °F    
Average Humidity 63    
Maximum Humidity 81    
Minimum Humidity 46    
Precipitation  
Precipitation 0.00 in 0.01 in 0.28 in (1980)
Month to date precipitation 0.01  
Year to date precipitation 15.88  
Snow  
Snow 0.00 in 0.20 in 4.20 in (1980)
Month to date snowfall 0.2  
Since 1 July snowfall 8.0  
Snow Depth -    
Sea Level Pressure  
Sea Level Pressure 29.87 in    
Wind  
Wind Speed 7 mph (SW)    
Max Wind Speed 12 mph    
Max Gust Speed 18 mph    
Visibility 10 miles    
Events      
T = Trace of Precipitation, MM = Missing Value Source: NWS Daily Summary

Daily Weather History Graph

Daily Weather History Graph

Search for Another Location

Airport or City:

Trip Planner

Search our weather history database for the weather conditions in past years. The results will help you decide how hot, cold, wet, or windy it might be!

Date:

Astronomy

Dec. 01, 2013 Rise Set
Actual Time 7:15 AM MST 4:19 PM MST
Civil Twilight 6:42 AM MST 4:52 PM MST
Nautical Twilight 6:06 AM MST 5:28 PM MST
Astronomical Twilight 5:30 AM MST 6:03 PM MST
Moon 5:33 AM MST (12/1) 3:33 PM MST (12/1)
Length of Visible Light 10h 09m
Length of Day
9h 03m
Waning Crescent, 2% of the Moon is Illuminated
Dec 1
Waning Crescent
Dec 2
New
Dec 9
First Quarter
Dec 17
Full
Dec 25
Last Quarter

Hourly Weather History & Observations

Time (MST) Temp. Windchill Dew Point Humidity Pressure Visibility Wind Dir Wind Speed Gust Speed Precip Events Conditions
12:15 AM 33.8 °F 27.7 °F 28.4 °F 81% 30.06 in 10.0 mi SSW 6.9 mph - N/A   Overcast
12:35 AM 33.8 °F 27.7 °F 28.4 °F 81% 30.05 in 10.0 mi SSW 6.9 mph - N/A   Overcast
12:55 AM 35.6 °F 30.7 °F 28.4 °F 75% 30.05 in 10.0 mi SSW 5.8 mph - N/A   Overcast
1:15 AM 37.4 °F 32.8 °F 30.2 °F 75% 30.04 in 10.0 mi SW 5.8 mph - N/A   Overcast
1:35 AM 33.8 °F 27.7 °F 28.4 °F 81% 30.05 in 10.0 mi West 6.9 mph - N/A   Overcast
1:55 AM 35.6 °F 29.2 °F 28.4 °F 75% 30.05 in 10.0 mi West 8.1 mph - N/A   Overcast
2:15 AM 37.4 °F 31.4 °F 28.4 °F 70% 30.05 in 10.0 mi WSW 8.1 mph - N/A   Overcast
2:35 AM 37.4 °F 32.1 °F 28.4 °F 70% 30.05 in 10.0 mi WSW 6.9 mph - N/A   Overcast
2:55 AM 35.6 °F 29.9 °F 28.4 °F 75% 30.04 in 10.0 mi WSW 6.9 mph - N/A   Overcast
3:15 AM 35.6 °F 31.7 °F 28.4 °F 75% 30.04 in 10.0 mi West 4.6 mph - N/A   Overcast
3:35 AM 35.6 °F 29.2 °F 28.4 °F 75% 30.02 in 10.0 mi South 8.1 mph - N/A   Mostly Cloudy
3:55 AM 35.6 °F 29.9 °F 28.4 °F 75% 30.03 in 10.0 mi West 6.9 mph - N/A   Mostly Cloudy
4:15 AM 35.6 °F 29.9 °F 28.4 °F 75% 30.03 in 10.0 mi SW 6.9 mph - N/A   Overcast
4:35 AM 37.4 °F 31.4 °F 28.4 °F 70% 30.02 in 10.0 mi SW 8.1 mph - N/A   Overcast
4:55 AM 35.6 °F 29.9 °F 28.4 °F 75% 30.02 in 10.0 mi WSW 6.9 mph - N/A   Mostly Cloudy
5:15 AM 33.8 °F 28.6 °F 28.4 °F 81% 30.02 in 10.0 mi WSW 5.8 mph - N/A   Mostly Cloudy
5:35 AM 35.6 °F 29.9 °F 28.4 °F 75% 30.02 in 10.0 mi SW 6.9 mph - N/A   Overcast
5:55 AM 35.6 °F 29.2 °F 28.4 °F 75% 30.03 in 10.0 mi SW 8.1 mph - N/A   Mostly Cloudy
6:15 AM 35.6 °F 29.2 °F 28.4 °F 75% 30.02 in 10.0 mi SW 8.1 mph - N/A   Mostly Cloudy
6:35 AM 37.4 °F 31.4 °F 28.4 °F 70% 30.02 in 10.0 mi SW 8.1 mph - N/A   Overcast
6:55 AM 35.6 °F 29.9 °F 28.4 °F 75% 30.02 in 10.0 mi SW 6.9 mph - N/A   Overcast
7:15 AM 35.6 °F 28.6 °F 26.6 °F 70% 30.01 in 10.0 mi SW 9.2 mph - N/A   Scattered Clouds
7:35 AM 35.6 °F 29.9 °F 26.6 °F 70% 30.02 in 10.0 mi SW 6.9 mph - N/A   Scattered Clouds
7:55 AM 37.4 °F 31.4 °F 28.4 °F 70% 30.01 in 10.0 mi SW 8.1 mph - N/A   Mostly Cloudy
8:15 AM 37.4 °F 30.8 °F 28.4 °F 70% 30.01 in 10.0 mi SSW 9.2 mph - N/A   Scattered Clouds
8:35 AM 39.2 °F 33.0 °F 28.4 °F 65% 30.00 in 10.0 mi SW 9.2 mph - N/A   Scattered Clouds
8:55 AM 41.0 °F 36.4 °F 28.4 °F 61% 29.99 in 10.0 mi SW 6.9 mph - N/A   Mostly Cloudy
9:15 AM 42.8 °F 38.0 °F 28.4 °F 57% 29.99 in 10.0 mi SW 8.1 mph - N/A   Scattered Clouds
9:35 AM 42.8 °F 38.6 °F 28.4 °F 57% 29.99 in 10.0 mi WSW 6.9 mph - N/A   Scattered Clouds
9:55 AM 42.8 °F 37.0 °F 28.4 °F 57% 29.97 in 10.0 mi SW 10.4 mph - N/A   Clear
10:15 AM 44.6 °F 40.2 °F 28.4 °F 53% 29.97 in 10.0 mi SW 8.1 mph - N/A   Clear
10:35 AM 44.6 °F 39.7 °F 28.4 °F 53% 29.96 in 10.0 mi WSW 9.2 mph - N/A   Clear
10:55 AM 44.6 °F 40.7 °F 28.4 °F 53% 29.95 in 10.0 mi WSW 6.9 mph - N/A   Clear
11:15 AM 44.6 °F 40.2 °F 28.4 °F 53% 29.93 in 10.0 mi WSW 8.1 mph - N/A   Clear
11:35 AM 46.4 °F 41.5 °F 28.4 °F 50% 29.92 in 10.0 mi SW 10.4 mph - N/A   Scattered Clouds
11:55 AM 46.4 °F 42.9 °F 28.4 °F 50% 29.90 in 10.0 mi SW 6.9 mph - N/A   Scattered Clouds
12:15 PM 46.4 °F 42.4 °F 28.4 °F 50% 29.88 in 10.0 mi SW 8.1 mph - N/A   Clear
12:35 PM 48.2 °F - 28.4 °F 46% 29.87 in 10.0 mi WSW 6.9 mph - N/A   Clear
12:55 PM 46.4 °F 41.5 °F 28.4 °F 50% 29.85 in 10.0 mi SW 10.4 mph - N/A   Clear
1:15 PM 46.4 °F 41.1 °F 28.4 °F 50% 29.83 in 10.0 mi SW 11.5 mph - N/A   Clear
1:35 PM 46.4 °F 41.9 °F 28.4 °F 50% 29.82 in 10.0 mi SW 9.2 mph - N/A   Clear
1:55 PM 46.4 °F 42.4 °F 28.4 °F 50% 29.81 in 10.0 mi SW 8.1 mph - N/A   Mostly Cloudy
2:15 PM 44.6 °F 40.2 °F 28.4 °F 53% 29.80 in 10.0 mi SSW 8.1 mph - N/A   Overcast
2:35 PM 44.6 °F 39.2 °F 28.4 °F 53% 29.79 in 10.0 mi SSW 10.4 mph - N/A   Overcast
2:55 PM 44.6 °F 41.4 °F 28.4 °F 53% 29.77 in 10.0 mi SSW 5.8 mph - N/A   Overcast
3:15 PM 44.6 °F 40.2 °F 28.4 °F 53% 29.77 in 10.0 mi SSW 8.1 mph - N/A   Overcast
3:35 PM 44.6 °F 41.4 °F 28.4 °F 53% 29.76 in 10.0 mi SSW 5.8 mph - N/A   Overcast
3:55 PM 44.6 °F 43.1 °F 28.4 °F 53% 29.76 in 10.0 mi SW 3.5 mph - N/A   Overcast
4:15 PM 42.8 °F - 28.4 °F 57% 29.75 in 10.0 mi Calm Calm - N/A   Overcast
4:35 PM 42.8 °F - 28.4 °F 57% 29.75 in 10.0 mi Calm Calm - N/A   Overcast
4:55 PM 42.8 °F - 28.4 °F 57% 29.73 in 10.0 mi Calm Calm - N/A   Overcast
5:15 PM 42.8 °F - 28.4 °F 57% 29.72 in 10.0 mi Calm Calm - N/A   Mostly Cloudy
5:35 PM 41.0 °F - 28.4 °F 61% 29.71 in 10.0 mi Calm Calm - N/A   Scattered Clouds
5:55 PM 37.4 °F 34.9 °F 26.6 °F 65% 29.71 in 10.0 mi SW 3.5 mph - N/A   Scattered Clouds
6:15 PM 41.0 °F 38.0 °F 28.4 °F 61% 29.71 in 10.0 mi WSW 4.6 mph - N/A   Mostly Cloudy
6:35 PM 41.0 °F 38.0 °F 28.4 °F 61% 29.71 in 10.0 mi WSW 4.6 mph - N/A   Overcast
6:55 PM 41.0 °F 36.4 °F 28.4 °F 61% 29.70 in 10.0 mi SW 6.9 mph - N/A   Overcast
7:15 PM 37.4 °F 32.1 °F 28.4 °F 70% 29.70 in 10.0 mi SSW 6.9 mph - N/A   Mostly Cloudy
7:35 PM 41.0 °F 36.4 °F 28.4 °F 61% 29.69 in 10.0 mi SSW 6.9 mph - N/A   Scattered Clouds
7:55 PM 37.4 °F 31.4 °F 28.4 °F 70% 29.70 in 10.0 mi SW 8.1 mph - N/A   Clear
8:15 PM 41.0 °F 36.4 °F 28.4 °F 61% 29.69 in 10.0 mi SSW 6.9 mph - N/A   Scattered Clouds
8:35 PM 42.8 °F 38.0 °F 28.4 °F 57% 29.70 in 10.0 mi SW 8.1 mph - N/A   Mostly Cloudy
8:55 PM 42.8 °F 38.6 °F 28.4 °F 57% 29.69 in 10.0 mi SSW 6.9 mph - N/A   Scattered Clouds
9:15 PM 41.0 °F 35.8 °F 28.4 °F 61% 29.70 in 10.0 mi SW 8.1 mph - N/A   Clear
9:35 PM 41.0 °F 35.2 °F 28.4 °F 61% 29.69 in 10.0 mi SSW 9.2 mph - N/A   Clear
9:55 PM 41.0 °F 35.2 °F 28.4 °F 61% 29.69 in 10.0 mi SSW 9.2 mph - N/A   Scattered Clouds
10:15 PM 41.0 °F 36.4 °F 28.4 °F 61% 29.68 in 10.0 mi SW 6.9 mph - N/A   Scattered Clouds
10:35 PM 41.0 °F 35.8 °F 28.4 °F 61% 29.69 in 10.0 mi SSW 8.1 mph - N/A   Mostly Cloudy
10:55 PM 41.0 °F 36.4 °F 28.4 °F 61% 29.68 in 10.0 mi SW 6.9 mph - N/A   Mostly Cloudy
11:15 PM 41.0 °F 34.7 °F 28.4 °F 61% 29.68 in 10.0 mi SW 10.4 mph - N/A   Mostly Cloudy
11:35 PM 41.0 °F 34.3 °F 28.4 °F 61% 29.68 in 10.0 mi SSW 11.5 mph - N/A   Mostly Cloudy
11:55 PM 42.8 °F 36.6 °F 28.4 °F 57% 29.67 in 10.0 mi SW 11.5 mph 18.4 mph N/A   Mostly Cloudy